1363564834628,98.5244
1363564894628,98.4167
1363564954628,98.1128
1363565014628,98.3399
1363565074628,98.1996
1363565134628,98.2754
1363565194628,98.2094
1363565254628,97.9168
1363565314628,97.9517
1363565374628,98.3589
1363565434628,98.0368
1363565494628,98.0070
1363565554628,97.8397
1363565614628,98.0472
1363565674628,97.9354
1363565734628,97.9526
1363565794628,97.9882
1363565854628,98.5959
1363565914628,98.1802
1363565974628,98.1542
1363566034628,98.2525
1363566094628,97.9378
1363566154628,97.9336
1363566214628,98.1801
1363566274628,98.4785
1363566334628,98.2765
1363566394628,98.1646
1363566454628,97.8489
1363566514628,98.6389
1363566574628,98.1860
1363566634628,98.1384
1363566694628,98.3928
1363566754628,98.6203
1363566814628,98.2577
1363566874628,98.4362
1363566934628,98.2904
1363566994628,98.0867
1363567054628,98.6472
1363567114628,97.9511
1363567174628,98.8592
1363567234628,98.4475
1363567294628,98.2198
1363567354628,98.4303
1363567414628,98.3288
1363567474628,98.6352
1363567534628,98.5981
1363567594628,98.1106
1363567654628,98.5196
1363567714628,98.4579
1363567774628,98.6230
1363567834628,98.2607
1363567894628,98.4047
1363567954628,97.8513
1363568014628,98.5724
1363568074628,98.7203
1363568134628,98.4645
1363568194628,98.7776
1363568254628,98.8969
1363568314628,98.8874
1363568374628,99.1988
1363568434641,98.4748
1363568494641,98.9700
1363568554641,98.7697
1363568614641,98.7814
1363568674641,98.8278
1363568734641,98.5919
1363568794641,98.9436
1363568854641,98.7835
1363568914641,99.1216
1363568974641,98.6935
1363569034641,98.7341
1363569094641,98.3195
1363569634641,98.8124
1363569694641,98.4323
1363569754641,98.7415
1363569814641,99.1488
1363569874641,99.1305
1363569934641,99.6362
1363569994641,98.9904
1363570054641,99.0479
1363570114641,99.2245
1363570174641,98.7078
1363570234641,98.8983
1363570294641,99.5641
1363570354641,99.2617
1363570414641,99.3467
1363570474641,99.6897
1363570534641,99.8502
1363570594641,99.5424
1363570654641,99.2434
1363570714641,99.2417
1363570774641,100.413
1363570834641,99.1341
1363570894641,99.7109
1363570954641,99.1453
1363571014641,99.7862
1363571074641,99.6540
1363571134641,99.5121
1363571194641,99.2600
1363571254641,99.7481
1363571314641,99.5633
1363571374641,99.4274
1363571434641,99.5272
1363571494641,99.7105
1363571554641,100.435
1363571614641,100.187
1363571674641,100.011
1363571734641,99.7766
1363571794641,100.218
1363571854641,100.354
1363571914641,100.189
1363571974641,100.946
1363572034653,100.359
1363572094653,100.185
1363572154653,100.075
1363572214653,100.102
1363572274653,100.345
1363572334653,100.212
1363572394653,100.257
1363572454653,100.311
1363572514653,100.465
1363572574653,100.631
1363572634653,100.443
1363572694653,100.499
1363572754653,101.102
1363572814653,100.812
1363572874653,100.699
1363572934653,100.666
1363572994653,101.009
1363573054653,100.744
1363573114653,100.633
1363573174653,101.039
1363573234653,101.232
1363573294653,100.352
1363573354653,100.522
1363573414653,100.187
1363573474653,100.785
1363573534653,100.712
1363573594653,100.867
1363573654653,99.8742
1363573714653,101.162
1363573774653,100.744
1363573834653,100.497
1363573894653,100.777
1363573954653,100.795
1363574014653,100.509
1363574074653,100.460
1363574134653,100.457
1363574194653,100.577
1363574254653,100.811
1363574314653,100.292
1363574374653,100.691
1363574434653,100.749
1363574494653,100.736
1363574554653,100.223
1363574614653,100.450
1363574674653,100.127
1363574734653,100.391
1363574794653,100.597
1363574854653,100.686
1363574914653,101.219
1363574974653,100.597
1363575034653,100.306
1363575094653,100.563
1363575154653,100.964
1363575214653,101.555
1363575274653,101.171
1363575334653,100.879
1363575394653,100.739
1363575454653,100.839
1363575514653,100.444
1363575574653,100.736
1363575634665,100.984
1363575694665,100.877
1363575754665,100.936
1363575814665,100.797
1363575874665,100.572
1363575934665,100.762
1363575994665,100.717
1363576054665,100.477
1363576114665,101.030
1363576174665,100.822
1363576234665,101.277
1363576294665,100.920
1363576354665,101.164
1363576414665,100.626
1363576474665,100.355
1363576534665,100.653
1363576594665,101.283
1363576654665,101.381
1363576714665,101.175
1363576774665,101.324
1363576834665,101.766
1363576894665,101.645
1363576954665,101.622
1363577014665,101.667
1363577074665,101.149
1363577134665,100.982
1363577194665,101.032
1363577254665,100.895
1363577314665,100.623
1363577374665,100.807
1363577434665,101.005
1363577494665,100.654
1363577554665,100.751
1363577614665,100.462
1363577674665,101.117
1363577734665,100.274
1363577794665,100.804
1363577854665,100.852
1363577914665,101.560
1363577974665,101.287
1363578034665,100.700
1363578094665,100.884
1363578154665,101.299
1363578214665,101.232
1363578274665,101.265
1363578334665,101.420
1363578394665,100.532
1363578454665,101.602
1363578514665,101.399
1363578574665,101.084
1363578634665,101.551
1363578694665,101.311
1363578754665,101.511
1363578814665,101.443
1363578874665,101.510
1363578934665,101.287
1363578994665,101.094
1363579054665,101.861
1363579114665,100.968
1363579174665,101.901
1363579234678,101.977
1363579294678,101.601
1363579354678,101.898
1363579414678,102.000
1363579474678,101.284
1363579534678,101.775
1363579594678,102.196
1363579654678,101.545
1363579714678,102.062
1363579774678,101.802
1363579834678,102.166
1363579894678,102.357
1363579954678,101.627
1363580014678,102.114
1363580074678,101.906
1363580134678,101.915
1363580194678,102.325
1363580254678,102.308
1363580314678,102.465
1363580374678,101.602
1363580434678,102.292
1363580494678,102.200
1363580554678,101.468
1363580614678,101.652
1363580674678,101.957
1363580734678,102.111
1363580794678,101.791
1363580854678,102.444
1363580914678,102.243
1363580974678,102.115
1363581034678,101.674
1363581094678,102.120
1363581154678,101.814
1363581214678,101.991
1363581274678,102.156
1363581334678,102.086
1363581394678,101.977
1363581454678,102.366
1363581514678,101.942
1363581574678,101.816
1363581634678,101.652
1363581694678,101.782
1363581754678,102.226
1363581814678,101.864
1363581874678,102.012
1363581934678,102.088
1363581994678,102.131
1363582054678,101.942
1363582114678,101.762
1363582174678,102.223
1363582234678,102.160
1363582294678,102.388
1363582354678,102.682
1363582414678,102.526
1363582474678,102.139
1363582534678,102.364
1363582594678,102.563
1363582654678,102.426
1363582714678,102.327
1363582774678,102.301
1363582834690,102.623
1363582894690,102.358
1363582954690,102.502
1363583014690,102.241
1363583074690,102.195
1363583134690,102.829
1363583194690,102.489
1363583254690,102.357
1363583314690,102.167
1363583374690,102.368
1363583434690,103.065
1363583494690,102.225
1363583554690,102.381
1363583614690,102.056
1363583674690,102.625
1363583734690,102.622
1363583794690,102.627
1363583854690,102.503
1363583914690,102.191
1363583974690,102.074
1363584034690,102.442
1363584094690,102.644
1363584154690,102.247
1363584214690,102.003
1363584274690,101.886
1363584334690,102.000
1363584394690,102.218
1363584454690,101.849
1363584514690,101.590
1363584574690,101.673
1363584634690,102.105
1363584694690,101.816
1363584754690,101.764
1363584814690,102.294
1363584874690,102.597
1363584934690,101.952
1363584994690,101.930
1363585054690,101.701
1363585114690,101.609
1363585174690,101.873
1363585234690,101.712
1363585294690,101.580
1363585354690,101.454
1363585414690,101.860
1363585474690,101.912
1363585534690,101.855
1363585594690,101.955
1363585654690,101.640
1363585714690,101.694
1363585774690,101.802
1363585834690,101.787
1363585894690,101.377
1363585954690,101.607
1363586014690,101.001
1363586074690,101.655
1363586134690,101.272
1363586194690,101.836
1363586254690,101.593
1363586314690,101.455
1363586374690,101.936
1363586434702,101.862
1363586494702,101.660
1363586554702,101.826
1363586614702,101.368
1363586674702,102.101
1363586734702,102.044
1363586794702,101.965
1363586854702,101.781
1363586914702,102.166
1363586974702,101.472
1363587034702,101.810
1363587094702,101.637
1363587154702,101.215
1363587214702,101.507
1363587274702,101.957
1363587334702,101.503
1363587394702,101.795
1363587454702,101.976
1363587514702,100.654
1363587574702,100.019
1363600534736,102.712
1363600594736,103.532
1363600654736,103.736
1363600714736,103.096
1363600774736,103.052
1363600834748,103.489
1363600894748,103.484
1363600954748,103.141
1363601014748,103.268
1363601074748,103.324
1363601134748,102.501
1363601194748,103.198
1363601254748,103.226
1363601314748,103.494
1363601374748,103.156
1363601434748,103.398
1363601494748,102.840
1363601554748,102.740
1363601614748,102.958
1363601674748,103.357
1363601734748,102.856
1363601794748,103.548
1363601854748,103.690
1363601914748,103.030
1363601974748,103.264
1363602034748,103.414
1363602094748,103.230
1363602154748,103.428
1363602214748,103.063
1363602274748,103.103
1363602334748,102.985
1363602394748,102.731
1363602454748,103.237
1363602514748,103.217
1363602574748,102.829
1363602634748,103.183
1363602694748,102.640
1363602754748,103.151
1363602814748,103.307
1363602874748,102.885
1363602934748,102.712
1363602994748,103.266
1363603054748,102.783
1363603114748,102.885
1363603174748,102.943
1363603234748,102.516
1363603294748,103.095
1363603354748,102.946
1363603414748,102.526
1363603474748,102.940
1363603534748,102.868
1363603594748,103.196
1363603654748,103.063
1363603714748,103.020
1363603774748,103.225
1363603834748,103.264
1363603894748,103.146
1363603954748,102.994
1363604014748,103.310
1363604074748,102.727
1363604134748,102.973
1363604194748,102.584
1363604254748,103.091
1363604314748,103.228
1363604374748,102.759
1363604434760,102.152
1363604494760,102.834
1363604554760,102.802
1363604614760,103.024
1363604674760,102.679
1363604734760,102.629
1363604794760,102.983
1363604854760,102.429
1363604914760,102.765
1363604974760,102.404
1363605034760,102.895
1363605094760,102.694
1363605154760,102.139
1363605214760,102.877
1363605274760,102.805
1363605334760,102.612
1363605394760,102.520
1363605454760,102.751
1363605514760,102.484
1363605574760,102.675
1363605634760,103.024
1363605694760,102.680
1363605754760,103.231
1363605814760,102.481
1363605874760,102.742
1363605934760,102.631
1363605994760,102.398
1363606054760,102.268
1363606114760,102.489
1363606174760,102.928
1363606234760,102.569
1363606294760,103.006
1363606354760,102.800
1363606414760,102.875
1363606474760,102.778
1363606534760,102.521
1363606594760,102.760
1363606654760,102.831
1363606714760,102.654
1363606774760,103.177
1363606834760,103.051
1363606894760,102.725
1363606954760,102.233
1363607014760,102.428
1363607074760,102.933
1363607134760,102.897
1363607194760,102.759
1363607254760,102.820
1363607314760,102.395
1363607374760,103.018
1363607434760,102.623
1363607494760,103.109
1363607554760,102.834
1363607614760,102.698
1363607674760,102.915
1363607734760,103.071
1363607794760,102.970
1363607854760,102.866
1363607914760,102.752
1363607974760,103.082
1363608034738,102.650
1363608094738,103.179
1363608154738,103.218
1363608214738,102.944
1363608274738,103.089
1363608334738,103.260
1363608394738,103.051
1363608454738,102.667
1363608514738,102.864
1363608574738,102.911
1363608634738,102.928
1363608694738,103.403
1363608754738,103.668
1363608814738,103.160
1363608874738,103.327
1363608934738,103.523
1363608994738,102.929
1363609054738,103.258
1363609114738,103.050
1363609174738,103.044
1363609234738,103.378
1363609294738,103.161
1363609354738,102.957
1363609414738,103.107
1363609474738,103.521
1363609534738,103.561
1363609594738,103.699
1363609654738,103.370
1363609714738,103.197
1363609774738,103.143
1363609834738,103.358
1363609894738,103.017
1363609954738,103.339
1363610014738,102.949
1363610074738,103.107
1363610134738,102.814
1363610194738,102.566
1363610254738,103.281
1363610314738,103.601
1363610374738,103.559
1363610434738,103.124
1363610494738,102.791
1363610554738,103.082
1363610614738,103.057
1363610674738,102.825
1363610734738,103.172
1363610794738,103.165
1363610854738,102.624
1363610914738,102.853
1363610974738,102.451
1363611034738,102.770
1363611094738,103.217
1363611154738,102.789
1363611214738,102.692
1363611274738,102.800
1363611334738,103.311
1363611394738,102.608
1363611454738,102.665
1363611514738,102.870
1363611574738,103.034
1363611634750,102.783
1363611694750,103.273
1363611754750,103.091
1363611814750,102.854
1363611874750,102.323
1363611934750,102.579
1363611994750,102.586
1363612054750,103.027
1363612114750,102.781
1363612174750,102.803
1363612234750,102.950
1363612294750,103.495
1363612354750,103.142
1363612414750,102.724
1363612474750,102.505
1363612534750,102.995
1363612594750,103.046
1363612654750,103.356
1363612714750,103.034
1363612774750,103.138
1363612834750,103.366
1363612894750,103.004
1363612954750,102.796
1363613014750,103.075
1363613074750,103.668
1363613134750,103.251
1363613194750,103.372
1363613254750,103.229
1363613314750,103.035
1363613374750,103.305
1363613434750,103.187
1363613494750,103.187
1363613554750,103.114
1363613614750,104.048
1363613674750,103.387
1363613734750,103.685
1363613794750,103.362
1363613854750,102.832
1363613914750,103.531
1363613974750,103.429
1363614034750,103.375
1363614094750,103.268
1363614154750,103.262
1363614214750,103.283
1363614274750,103.321
1363614334750,103.184
1363614394750,103.748
1363614454750,103.275
1363614514750,103.715
1363614574750,104.025
1363614634750,103.235
1363614694750,103.609
1363614754750,103.520
1363614814750,104.098
1363614874750,103.507
1363614934750,103.455
1363614994750,103.604
1363615054750,103.782
1363615114750,103.362
1363615174750,103.795
1363615234762,103.627
1363615294762,104.104
1363615354761,103.862
1363615414762,103.911
1363615474762,103.892
1363615534762,103.488
1363615594762,103.205
1363615654762,103.308
1363615714762,103.495
1363615774762,103.614
1363615834762,103.161
1363615894762,103.335
1363615954762,103.344
1363616014761,103.480
1363616074761,103.388
1363616134761,103.182
1363616194761,103.520
1363616254761,104.071
1363616314761,103.149
1363616374761,103.786
1363616434762,103.312
1363616494762,103.773
1363616554762,104.042
1363616614762,103.696
1363616674762,102.927
1363616734761,103.397
1363616794762,103.629
1363616854762,103.132
1363616914762,103.092
1363616974762,103.364
1363617034762,102.964
1363617094762,103.806
1363617154762,103.455
1363617214762,103.691
1363617274762,103.257
1363617334762,103.532
1363617394761,103.329
1363617454761,103.500
1363617514761,103.329
1363617574761,103.436
1363617634761,103.903
1363617694761,103.947
1363617754761,103.314
1363617814762,103.580
1363617874762,103.532
1363617934762,102.877
1363617994762,103.801
1363618054761,103.343
1363618114762,104.052
1363618174762,103.777
1363618234762,103.594
1363618294762,103.997
1363618354762,103.781
1363618414762,103.782
1363618474762,103.905
1363618534762,103.749
1363618594762,104.286
1363618654762,104.184
1363618714761,103.920
1363618774761,103.937
1363618834773,104.135
1363618894773,104.008
1363618954773,104.129
1363619014773,104.223
1363619074773,104.144
1363619134773,104.172
1363619194773,104.242
1363619254773,104.183
1363619314773,104.392
1363619374773,103.917
1363619434773,104.160
1363619494773,104.141
1363619554773,104.083
1363619614773,103.987
1363619674773,104.037
1363619734773,103.475
1363619794773,105.545
1363619854773,104.255
1363619914773,104.315
1363619974773,104.258
1363620034773,104.042
1363620094773,103.964
1363620154773,104.348
1363620214773,104.110
1363620274773,104.142
1363620334773,103.595
1363620394773,104.559
1363620454773,103.800
1363620514773,103.561
1363620574773,104.107
1363620634773,103.890
1363620694773,104.386
1363620754773,103.798
1363620814773,104.470
1363620874773,104.289
1363620934773,104.014
1363620994773,104.086
1363621054773,104.112
1363621114773,104.158
1363621174773,103.874
1363621234773,104.066
1363621294773,104.107
1363621354773,104.255
1363621414773,103.566
1363621474773,103.559
1363621534773,104.046
1363621594773,103.795
1363621654773,103.651
1363621714773,103.719
1363621774773,103.608
1363621834773,104.299
1363621894773,103.697
1363621954773,103.881
1363622014773,103.506
1363622074773,103.683
1363622134773,104.351
1363622194773,103.580
1363622254773,103.593
1363622314773,104.020
1363622374773,104.240
1363622434785,104.106
1363622494785,103.809
1363622554785,104.004
1363622614785,104.070
1363622674785,104.037
1363622734785,103.819
1363622794785,103.562
1363622854785,103.905
1363622914785,104.175
1363622974785,104.420
1363623034785,103.790
1363623094785,103.530
1363623154785,103.979
1363623214785,103.604
1363623274785,104.446
1363623334785,103.583
1363623394785,104.197
1363623454785,103.702
1363623514785,103.381
1363623574785,103.904
1363623634785,103.690
1363623694785,103.738
1363623754785,103.314
1363623814785,103.967
1363623874785,103.947
1363623934785,103.614
1363623994785,103.191
1363624054785,103.432
1363624114785,103.568
1363624174785,103.104
1363624234785,104.042
1363624294785,103.859
1363624354785,103.830
1363624414785,104.228
1363624474785,103.785
1363624534785,103.669
1363624594785,103.896
1363624654785,104.018
1363624714785,103.825
1363624774785,104.096
1363624834785,104.204
1363624894785,103.675
1363624954785,103.929
1363625014785,103.862
1363625074785,104.117
1363625134785,103.819
1363625194785,103.484
1363625254785,104.018
1363625314785,103.474
1363625374785,103.562
1363625434785,103.864
1363625494785,103.762
1363625554785,103.748
1363625614785,103.972
1363625674785,103.859
1363625734785,103.299
1363625794785,103.641
1363625854785,104.251
1363625914785,103.478
1363625974785,103.770
1363626034796,103.346
1363626094796,103.750
1363626154796,103.463
1363626214796,103.798
1363626274796,103.854
1363626334796,103.526
1363626394796,103.911
1363626454796,103.894
1363626514796,104.069
1363626574796,103.894
1363626634796,103.753
1363626694796,103.744
1363626754796,103.825
1363626814796,103.638
1363626874796,104.129
1363626934796,103.600
1363626994796,103.860
1363627054796,103.949
1363627114796,103.130
1363627174796,103.699
1363627234796,103.930
1363627294796,103.224
1363627354796,103.971
1363627414796,103.768
1363627474796,103.938
1363627534796,103.361
1363627594796,103.522
1363627654796,103.651
1363627714796,103.373
1363627774796,103.508
1363627834796,103.794
1363627894796,103.636
1363627954796,104.033
1363628014796,103.871
1363628074796,103.046
1363628134796,103.643
1363628194796,103.652
1363628254796,103.904
1363628314796,104.327
1363628374796,103.768
1363628434796,103.273
1363628494796,103.648
1363628554796,103.898
1363628614796,103.186
1363628674796,103.499
1363628734796,103.179
1363628794796,103.594
1363628854796,104.189
1363628914796,103.449
1363628974796,103.842
1363629034796,103.624
1363629094796,103.680
1363629154796,103.694
1363629214796,103.858
1363629274796,103.674
1363629334796,103.211
1363629394796,103.565
1363629454796,103.269
1363629514796,103.660
1363629574796,103.195
1363629634808,103.903
1363629694808,103.701
1363629754808,104.029
1363629814808,103.891
1363629874808,103.826
1363629934808,103.925
1363629994808,103.756
1363630054808,103.892
1363630114808,103.918
1363630174808,103.754
1363630234808,103.735
1363630294808,104.016
1363630354808,103.536
1363630414808,103.449
1363630474808,103.584
1363630534808,103.989
1363630594808,103.804
1363630654808,103.700
1363630714808,103.828
1363630774808,103.697
1363630834808,103.776
1363630894808,103.847
1363630954808,103.615
1363631014808,103.445
1363631074808,103.810
1363631134808,103.219
1363631194808,103.530
1363631254808,103.626
1363631314808,103.622
1363631374808,103.470
1363631434808,103.029
1363631494808,104.058
1363631554808,103.492
1363631614808,103.159
1363631674808,103.058
1363631734808,103.387
1363631794808,103.379
1363631854808,103.346
1363631914808,103.509
1363631974808,102.908
1363632034808,102.778
1363632094808,103.318
1363632154808,102.833
1363632214808,102.929
1363632274808,102.695
1363632334808,102.788
1363632394808,103.174
1363632454808,103.103
1363632514808,102.730
1363632574808,102.705
1363632634808,103.089
1363632694808,102.665
1363632754808,102.630
1363632814808,102.741
1363632874808,102.649
1363632934808,102.524
1363632994808,102.816
1363633054808,102.745
1363633114808,102.663
1363633174808,103.095
1363633234819,102.296
1363633294819,102.700
1363633354819,102.720
1363633414819,103.015
1363633474819,102.600
1363633534819,102.953
1363633594819,103.322
1363633654819,102.371
1363633714819,102.448
1363633774819,102.799
1363633834819,102.800
1363633894819,103.510
1363633954819,102.515
1363634014819,102.673
1363634074819,103.391
1363634134819,102.938
1363634194819,102.638
1363634254819,102.490
1363634314819,102.390
1363634374819,102.613
1363634434819,102.733
1363634494819,102.806
1363634554819,102.922
1363634614819,102.970
1363634674819,103.178
1363634734819,102.689
1363634794819,102.738
1363634854819,102.835
1363634914819,102.914
1363634974819,102.890
1363635034819,102.777
1363635094819,102.449
1363635154819,102.898
1363635214819,103.013
1363635274819,102.122
1363635334819,102.210
1363635394819,103.042
1363635454819,102.782
1363635514819,102.708
1363635574819,102.700
1363635634819,103.043
1363635694819,102.836
1363635754819,102.547
1363635814819,102.563
1363635874819,102.556
1363635934819,102.992
1363635994819,102.790
1363636054819,102.885
1363636114819,102.725
1363636174819,102.285
1363636234819,102.540
1363636294819,102.897
1363636354819,102.402
1363636414819,102.309
1363636474819,102.595
1363636534819,102.588
1363636594819,102.445
1363636654819,102.560
1363636714819,102.326
1363636774819,102.524
1363636834831,102.189
1363636894831,102.453
1363636954831,102.498
1363637014831,102.590
1363637074831,102.532
1363637134831,102.580
1363637194831,102.187
1363637254831,102.387
1363637314831,102.734
1363637374831,102.286
1363637434831,102.606
1363637494831,102.541
1363637554831,102.295
1363637614831,102.061
1363637674831,102.736
1363637734831,102.362
1363637794831,102.367
1363637854831,102.492
1363637914831,102.602
1363637974831,102.486
1363638034831,101.894
1363638094831,102.197
1363638154831,101.706
1363638214831,102.452
1363638274831,102.399
1363638334831,102.483
1363638394831,102.551
1363638454831,102.512
1363638514831,102.365
1363638574831,102.394
1363638634831,102.489
1363638694831,102.132
1363638754831,102.273
1363638814831,102.300
1363638874831,102.300
1363638934831,102.310
1363638994831,102.552
1363639054831,102.610
1363639114831,102.412
1363639174831,102.505
1363639234831,102.466
1363639294831,102.379
1363639354831,102.121
1363639414831,103.091
1363639474831,102.104
1363639534831,102.658
1363639594831,102.135
1363639654831,101.786
1363639714831,102.717
1363639774831,102.563
1363639834831,102.203
1363639894831,102.595
1363639954831,102.442
1363640014831,102.539
1363640074831,102.449
1363640134831,102.517
1363640194831,102.803
1363640254831,102.966
1363640314831,102.929
1363640374831,102.971
1363640434842,102.841
1363640494842,102.612
1363640554842,102.442
1363640614842,102.263
1363640674842,102.714
1363640734842,102.880
1363640794842,102.316
1363640854842,102.571
1363640914842,102.936
1363640974842,102.498
1363641034842,102.423
1363641094842,102.364
1363641154842,102.621
1363641214842,102.138
1363641274842,102.681
1363641334842,102.672
1363641394842,102.919
1363641454842,102.506
1363641514842,102.524
1363641574842,102.657
1363641634842,102.294
1363641694842,102.813
1363641754842,102.746
1363641814842,102.499
1363641874842,102.329
1363641934842,102.184
1363641994842,101.952
1363642054842,102.177
1363642114842,101.963
1363642174842,102.687
1363642234842,102.471
1363642294842,102.399
1363642354842,102.412
1363642414842,102.202
1363642474842,101.927
1363642534842,102.292
1363642594842,101.787
1363642654842,102.186
1363642714842,101.737
1363642774842,101.809
1363642834842,101.643
1363642894842,101.850
1363642954842,102.103
1363643014842,101.748
1363643074842,101.863
1363643134842,102.156
1363643194842,102.261
1363643254842,101.842
1363643314842,102.004
1363643374842,101.791
1363643434842,102.038
1363643494842,102.487
1363643554842,102.067